Location: Krasnoyarskiy Pitomnik
(51.1333°N, 71.6167°E)
Time: 10:30:21
(UTC+00:00)

Cosmos 2173 Rocket - Pass Details

Date: 22 October 2021
Orbit: 945 x 1000 km, 83.0° (Epoch: 06 December)

Event Time Altitude Azimuth Distance (km) Brightness Sun altitude
Exits shadow 14:22:33 42° 88° (E) 1,368 4.3 -22.0°
Drops below altitude 10° 14:28:22 10° 21° (NNE) 2,753 6.3 -22.9°
Sets 14:31:02 0° 14° (NNE) 3,714 7.0 -23.3°
